Simultaneous Nadir Overpasses (SNOs) Predictions

Prediction of SNOs between GOES-15 and METOP-A Satellite Orbit:

Table of predicted SNOs for the next 14.0 days since TLE Epoch: 2/17/2017
Index Date Time (GOES-15) GOES-15 Lat,Lon METOP-A Lat,Lon Distance(km) Time Diff (sec)
1 02/18/2017 18:48:04 0.04,-135.35 0.88,-139.18 435.26 80
2 02/19/2017 18:24:44 0.04,-135.34 -0.25,-134.18 132.48 80
3 02/21/2017 06:43:44 -0.03,-135.33 -0.82,-138.77 392.65 80
4 02/22/2017 06:25:44 -0.03,-135.31 0.31,-133.78 174.78 80
5 02/23/2017 18:44:35 0.03,-135.27 0.69,-138.34 348.83 80
6 02/24/2017 18:21:15 0.03,-135.25 -0.38,-133.33 218.17 80
7 02/26/2017 06:40:15 -0.03,-135.23 -0.64,-137.93 308.25 80
8 02/27/2017 06:22:16 -0.03,-135.21 0.49,-132.94 258.55 80
9 02/28/2017 18:41:06 0.03,-135.16 0.56,-137.49 265.92 80
10 03/01/2017 18:17:47 0.03,-135.13 -0.57,-132.50 300.36 80
11 03/03/2017 06:36:47 -0.03,-135.10 -0.44,-137.10 227.47 80




NCC Satellite Simultaneous Nadir Overpasses (SNOs) Prediction Service
